THY805 LTAF-LTCW

Flight info

Callsign THY805
Flight time 1h 13m
Altitude 37000
Route MILBA UW74 GAZ UT470 OZBEY UW74 DYB UW73 TAMER UG8 NARLI UT301 INLAP
Aircraft A320/M-SDE3FGHIRWY/LB1

Departure

Time 2026-04-21 22:02
Airport Adana Şakirpaşa Airport (LTAF)

Arrival

Time 2026-04-21 23:16
Airport Hakkari Yüksekova Airport (LTCW)
Time Latitude Longitude Altitude Speed Heading
2026-04-21 21:31 36.98514 35.29623 72 ft 0 kts 100°
2026-04-21 21:53 36.98517 35.29601 72 ft 3 kts 100°
2026-04-21 21:53 36.98520 35.29578 63 ft 3 kts 95°
2026-04-21 21:53 36.98521 35.29553 65 ft 3 kts 85°
2026-04-21 21:54 36.98518 35.29528 64 ft 3 kts 74°
2026-04-21 21:54 36.98516 35.29519 62 ft 0 kts 72°
2026-04-21 21:56 36.98522 35.29526 65 ft 3 kts 41°
2026-04-21 21:56 36.98560 35.29538 72 ft 7 kts 11°
2026-04-21 21:56 36.98623 35.29551 66 ft 11 kts
2026-04-21 21:57 36.98698 35.29505 69 ft 14 kts 323°
2026-04-21 21:57 36.98784 35.29425 63 ft 17 kts 323°
2026-04-21 21:57 36.98809 35.29401 69 ft 0 kts 323°
2026-04-21 22:00 36.98811 35.29400 72 ft 2 kts 323°
2026-04-21 22:00 36.98846 35.29367 68 ft 9 kts 323°
2026-04-21 22:01 36.98904 35.29313 68 ft 11 kts 323°
2026-04-21 22:01 36.98931 35.29258 72 ft 8 kts 256°
2026-04-21 22:01 36.98888 35.29182 67 ft 21 kts 233°
2026-04-21 22:01 36.98635 35.28756 69 ft 97 kts 233°
2026-04-21 22:02 36.98115 35.27878 70 ft 151 kts 233°
2026-04-21 22:02 36.97439 35.26745 498 ft 164 kts 233°
2026-04-21 22:02 36.96946 35.25474 1209 ft 164 kts 259°
2026-04-21 22:02 36.96989 35.24057 1913 ft 168 kts 286°
2026-04-21 22:03 36.97615 35.22750 2251 ft 189 kts 317°
2026-04-21 22:03 36.98858 35.21994 2571 ft 214 kts 353°
2026-04-21 22:03 37.00384 35.22362 3012 ft 239 kts 32°
2026-04-21 22:03 37.01575 35.23925 3542 ft 261 kts 60°
2026-04-21 22:04 37.02129 35.26081 4386 ft 269 kts 87°
2026-04-21 22:04 37.02094 35.28447 5336 ft 274 kts 94°
2026-04-21 22:04 37.01982 35.30844 6314 ft 278 kts 95°
2026-04-21 22:04 37.01843 35.33275 7243 ft 282 kts 95°
2026-04-21 22:05 37.01700 35.35746 8134 ft 287 kts 94°
2026-04-21 22:05 37.01557 35.38258 9054 ft 292 kts 94°
2026-04-21 22:05 37.01414 35.40822 9935 ft 298 kts 94°
2026-04-21 22:05 37.01268 35.43474 10436 ft 316 kts 94°
2026-04-21 22:06 37.01115 35.46307 10816 ft 335 kts 94°
2026-04-21 22:06 37.00960 35.49211 11490 ft 342 kts 94°
2026-04-21 22:06 37.00796 35.52233 12262 ft 346 kts 94°
2026-04-21 22:06 37.00631 35.55211 13046 ft 349 kts 94°
2026-04-21 22:07 37.00460 35.58259 13789 ft 354 kts 94°
2026-04-21 22:07 37.00286 35.61351 14443 ft 358 kts 94°
2026-04-21 22:07 37.00112 35.64479 15073 ft 362 kts 94°
2026-04-21 22:07 36.99937 35.67642 15709 ft 366 kts 94°
2026-04-21 22:08 36.99760 35.70839 16345 ft 370 kts 94°
2026-04-21 22:08 36.99578 35.74063 16995 ft 374 kts 94°
2026-04-21 22:08 36.99390 35.77345 17633 ft 379 kts 94°
2026-04-21 22:08 36.99199 35.80652 18254 ft 383 kts 94°
2026-04-21 22:09 36.99005 35.83988 18817 ft 387 kts 94°
2026-04-21 22:09 36.98812 35.87320 19380 ft 391 kts 94°
2026-04-21 22:09 36.98613 35.90726 19962 ft 394 kts 94°
2026-04-21 22:09 36.98411 35.94162 20543 ft 397 kts 94°
2026-04-21 22:10 36.98206 35.97627 21100 ft 401 kts 94°
2026-04-21 22:10 36.98002 36.01113 21625 ft 404 kts 94°
2026-04-21 22:10 36.97794 36.04643 22151 ft 407 kts 94°
2026-04-21 22:10 36.97583 36.08186 22665 ft 411 kts 94°
2026-04-21 22:11 36.97370 36.11765 23190 ft 414 kts 93°
2026-04-21 22:11 36.97156 36.15366 23706 ft 417 kts 93°
2026-04-21 22:11 36.96937 36.19002 24150 ft 421 kts 93°
2026-04-21 22:11 36.96715 36.22661 24593 ft 424 kts 94°
2026-04-21 22:12 36.96490 36.26355 25036 ft 427 kts 94°
2026-04-21 22:12 36.96266 36.30010 25446 ft 430 kts 94°
2026-04-21 22:12 36.96033 36.33756 25874 ft 433 kts 94°
2026-04-21 22:12 36.95798 36.37528 26301 ft 436 kts 94°
2026-04-21 22:13 36.95561 36.41329 26708 ft 440 kts 94°
2026-04-21 22:13 36.95320 36.45156 27127 ft 443 kts 94°
2026-04-21 22:13 36.95096 36.49011 27538 ft 446 kts 92°
2026-04-21 22:13 36.94996 36.52907 27935 ft 448 kts 89°
2026-04-21 22:14 36.95012 36.56815 28325 ft 451 kts 87°
2026-04-21 22:14 36.95090 36.60748 28711 ft 454 kts 86°
2026-04-21 22:14 36.95183 36.64651 29088 ft 457 kts 86°
2026-04-21 22:14 36.95263 36.68642 29475 ft 460 kts 87°
2026-04-21 22:15 36.95312 36.72663 29866 ft 464 kts 88°
2026-04-21 22:15 36.95336 36.76713 30235 ft 467 kts 88°
2026-04-21 22:15 36.95344 36.80784 30613 ft 469 kts 88°
2026-04-21 22:15 36.95347 36.84878 30962 ft 472 kts 88°
2026-04-21 22:16 36.95350 36.89000 31260 ft 475 kts 88°
2026-04-21 22:16 36.95361 36.93141 31585 ft 479 kts 88°
2026-04-21 22:16 36.95376 36.97312 31974 ft 479 kts 88°
2026-04-21 22:16 36.95390 37.01427 32430 ft 479 kts 88°
2026-04-21 22:17 36.95403 37.05589 32860 ft 480 kts 88°
2026-04-21 22:17 36.95411 37.09769 33304 ft 480 kts 88°
2026-04-21 22:17 36.95416 37.13938 33747 ft 480 kts 88°
2026-04-21 22:17 36.95417 37.18120 34160 ft 481 kts 88°
2026-04-21 22:18 36.95400 37.22299 34498 ft 482 kts 89°
2026-04-21 22:18 36.95366 37.26494 34823 ft 483 kts 89°
2026-04-21 22:18 36.95322 37.30695 35157 ft 483 kts 89°
2026-04-21 22:18 36.95275 37.34902 35481 ft 484 kts 89°
2026-04-21 22:19 36.95230 37.39116 35809 ft 485 kts 89°
2026-04-21 22:19 36.95188 37.43338 36060 ft 486 kts 89°
2026-04-21 22:19 36.95234 37.47555 36313 ft 485 kts 83°
2026-04-21 22:19 36.95660 37.51739 36554 ft 485 kts 79°
2026-04-21 22:20 36.96141 37.55870 36814 ft 486 kts 79°
2026-04-21 22:20 36.96623 37.60058 36986 ft 487 kts 80°
2026-04-21 22:20 36.97096 37.64247 37018 ft 486 kts 80°
2026-04-21 22:21 36.98024 37.72612 37006 ft 485 kts 80°
2026-04-21 22:21 36.98935 37.80971 37044 ft 485 kts 80°
2026-04-21 22:22 36.99808 37.89286 37017 ft 485 kts 80°
2026-04-21 22:22 37.00668 37.97658 37008 ft 485 kts 81°
2026-04-21 22:23 37.01522 38.06025 37014 ft 485 kts 81°
2026-04-21 22:23 37.02380 38.14405 37016 ft 485 kts 81°
2026-04-21 22:24 37.03228 38.22781 37033 ft 485 kts 81°
2026-04-21 22:24 37.04068 38.31111 37034 ft 485 kts 81°
2026-04-21 22:25 37.04903 38.39489 37035 ft 485 kts 81°
2026-04-21 22:25 37.05737 38.47877 37034 ft 485 kts 81°
2026-04-21 22:26 37.06562 38.56257 37033 ft 485 kts 81°
2026-04-21 22:26 37.07405 38.64644 37046 ft 485 kts 80°
2026-04-21 22:27 37.08254 38.73021 37036 ft 485 kts 81°
2026-04-21 22:27 37.09334 38.81342 37031 ft 481 kts 71°
2026-04-21 22:28 37.12017 38.88906 37031 ft 472 kts 52°
2026-04-21 22:28 37.15821 38.95501 37043 ft 469 kts 49°
2026-04-21 22:29 37.19665 39.02123 37040 ft 470 kts 49°
2026-04-21 22:29 37.23504 39.08780 37040 ft 470 kts 49°
2026-04-21 22:30 37.27341 39.15430 37048 ft 470 kts 49°
2026-04-21 22:30 37.31155 39.22024 37045 ft 470 kts 49°
2026-04-21 22:31 37.35004 39.28668 37042 ft 469 kts 49°
2026-04-21 22:31 37.38840 39.35309 37052 ft 469 kts 50°
2026-04-21 22:32 37.42667 39.41969 37048 ft 469 kts 50°
2026-04-21 22:32 37.46470 39.48598 37044 ft 469 kts 50°
2026-04-21 22:33 37.50288 39.55275 37044 ft 470 kts 50°
2026-04-21 22:33 37.54091 39.61951 37031 ft 470 kts 50°
2026-04-21 22:34 37.57907 39.68652 37053 ft 470 kts 50°
2026-04-21 22:34 37.61716 39.75343 37047 ft 470 kts 50°
2026-04-21 22:35 37.65524 39.82052 37041 ft 470 kts 50°
2026-04-21 22:35 37.69296 39.88727 37038 ft 469 kts 50°
2026-04-21 22:36 37.74989 39.98790 37026 ft 469 kts 50°
2026-04-21 22:36 37.78783 40.05517 37023 ft 470 kts 50°
2026-04-21 22:37 37.81926 40.11115 37030 ft 470 kts 51°
2026-04-21 22:37 37.85706 40.17862 37025 ft 469 kts 51°
2026-04-21 22:38 37.89529 40.24549 37023 ft 468 kts 49°
2026-04-21 22:38 37.93535 40.31033 37026 ft 467 kts 47°
2026-04-21 22:39 37.97558 40.37433 37024 ft 467 kts 48°
2026-04-21 22:39 38.01560 40.43914 37019 ft 467 kts 48°
2026-04-21 22:40 38.05531 40.50442 37026 ft 467 kts 49°
2026-04-21 22:40 38.09490 40.56975 37023 ft 467 kts 49°
2026-04-21 22:41 38.13452 40.63524 37039 ft 467 kts 49°
2026-04-21 22:41 38.17354 40.70136 37034 ft 468 kts 50°
2026-04-21 22:42 38.20640 40.77212 37032 ft 474 kts 68°
2026-04-21 22:42 38.21495 40.81266 37028 ft 476 kts 79°
2026-04-21 22:42 38.21736 40.85461 37024 ft 478 kts 92°
2026-04-21 22:43 38.21334 40.89650 37023 ft 477 kts 104°
2026-04-21 22:43 38.20323 40.93662 37024 ft 476 kts 113°
2026-04-21 22:43 38.17886 41.01487 37011 ft 476 kts 113°
2026-04-21 22:44 38.15447 41.09316 37013 ft 477 kts 113°
2026-04-21 22:44 38.14046 41.13801 37015 ft 477 kts 113°
2026-04-21 22:45 38.11622 41.21650 37017 ft 478 kts 112°
2026-04-21 22:45 38.09242 41.29466 37029 ft 478 kts 112°
2026-04-21 22:46 38.06840 41.37333 37029 ft 477 kts 112°
2026-04-21 22:46 38.04424 41.45189 37035 ft 477 kts 113°
2026-04-21 22:47 38.01999 41.53018 37035 ft 477 kts 113°
2026-04-21 22:47 37.99590 41.60798 37040 ft 477 kts 113°
2026-04-21 22:48 37.97164 41.68633 37047 ft 477 kts 113°
2026-04-21 22:48 37.94739 41.76462 37037 ft 477 kts 113°
2026-04-21 22:49 37.92300 41.84279 37048 ft 477 kts 112°
2026-04-21 22:49 37.90796 41.92457 37054 ft 479 kts 95°
2026-04-21 22:50 37.90283 42.00828 37055 ft 480 kts 95°
2026-04-21 22:50 37.89740 42.09262 37076 ft 480 kts 95°
2026-04-21 22:51 37.89189 42.17687 37075 ft 480 kts 95°
2026-04-21 22:51 37.88634 42.26090 37072 ft 479 kts 95°
2026-04-21 22:52 37.88075 42.34500 37070 ft 479 kts 95°
2026-04-21 22:52 37.87514 42.42893 37062 ft 479 kts 95°
2026-04-21 22:53 37.86944 42.51256 36769 ft 482 kts 95°
2026-04-21 22:53 37.86654 42.55483 36516 ft 482 kts 95°
2026-04-21 22:53 37.86359 42.59719 36272 ft 482 kts 96°
2026-04-21 22:54 37.86061 42.63934 36032 ft 482 kts 96°
2026-04-21 22:54 37.85763 42.68159 35781 ft 481 kts 96°
2026-04-21 22:54 37.85463 42.72379 35540 ft 481 kts 96°
2026-04-21 22:54 37.85163 42.76586 35289 ft 481 kts 96°
2026-04-21 22:55 37.84858 42.80808 35049 ft 480 kts 96°
2026-04-21 22:55 37.84552 42.85006 34822 ft 480 kts 96°
2026-04-21 22:55 37.84245 42.89209 34586 ft 479 kts 96°
2026-04-21 22:55 37.83935 42.93398 34355 ft 479 kts 96°
2026-04-21 22:56 37.83621 42.97593 34116 ft 478 kts 96°
2026-04-21 22:56 37.83307 43.01775 33859 ft 478 kts 96°
2026-04-21 22:56 37.82993 43.05965 33585 ft 478 kts 96°
2026-04-21 22:56 37.82684 43.10099 33290 ft 478 kts 96°
2026-04-21 22:57 37.82368 43.14295 32386 ft 483 kts 96°
2026-04-21 22:57 37.82050 43.18515 31830 ft 478 kts 96°
2026-04-21 22:57 37.81721 43.22685 31262 ft 474 kts 98°
2026-04-21 22:57 37.81066 43.26744 30690 ft 470 kts 107°
2026-04-21 22:58 37.80055 43.30658 30116 ft 466 kts 110°
2026-04-21 22:58 37.79024 43.34532 29507 ft 462 kts 109°
2026-04-21 22:58 37.78013 43.38365 28928 ft 457 kts 109°
2026-04-21 22:58 37.77012 43.42166 28366 ft 452 kts 109°
2026-04-21 22:59 37.76025 43.45909 27807 ft 447 kts 109°
2026-04-21 22:59 37.75054 43.49573 27264 ft 443 kts 109°
2026-04-21 22:59 37.74076 43.53247 26718 ft 439 kts 109°
2026-04-21 22:59 37.73103 43.56895 26177 ft 435 kts 109°
2026-04-21 23:00 37.72139 43.60509 25653 ft 431 kts 109°
2026-04-21 23:00 37.71185 43.64085 25144 ft 428 kts 109°
2026-04-21 23:00 37.70247 43.67588 24644 ft 425 kts 109°
2026-04-21 23:00 37.69303 43.71115 24156 ft 422 kts 109°
2026-04-21 23:01 37.68170 43.74508 23687 ft 417 kts 118°
2026-04-21 23:01 37.66588 43.77537 23349 ft 408 kts 129°
2026-04-21 23:01 37.64890 43.80370 22925 ft 402 kts 128°
2026-04-21 23:01 37.63237 43.83196 22442 ft 399 kts 127°
2026-04-21 23:02 37.61606 43.86015 21950 ft 396 kts 127°
2026-04-21 23:02 37.59987 43.88812 21468 ft 393 kts 127°
2026-04-21 23:02 37.58374 43.91575 20964 ft 391 kts 128°
2026-04-21 23:02 37.56760 43.94321 20462 ft 388 kts 128°
2026-04-21 23:03 37.55148 43.97047 19939 ft 387 kts 128°
2026-04-21 23:03 37.53540 43.99754 19422 ft 386 kts 128°
2026-04-21 23:03 37.51956 44.02418 18913 ft 384 kts 128°
2026-04-21 23:03 37.50363 44.05102 18402 ft 382 kts 128°
2026-04-21 23:04 37.48774 44.07780 17828 ft 380 kts 128°
2026-04-21 23:04 37.47201 44.10432 17320 ft 376 kts 128°
2026-04-21 23:04 37.45644 44.13053 16835 ft 372 kts 128°
2026-04-21 23:04 37.44099 44.15650 16323 ft 369 kts 128°
2026-04-21 23:05 37.42489 44.18134 15812 ft 365 kts 134°
2026-04-21 23:05 37.40746 44.20459 15266 ft 363 kts 134°
2026-04-21 23:05 37.39019 44.22761 14728 ft 362 kts 134°
2026-04-21 23:05 37.37314 44.25034 14327 ft 347 kts 134°
2026-04-21 23:06 37.35721 44.27163 14247 ft 322 kts 134°
2026-04-21 23:06 37.34257 44.29124 14132 ft 301 kts 134°
2026-04-21 23:06 37.32847 44.31011 13999 ft 284 kts 134°
2026-04-21 23:06 37.31554 44.32760 13872 ft 268 kts 130°
2026-04-21 23:07 37.30958 44.33893 13788 ft 260 kts 115°
2026-04-21 23:07 37.30511 44.36001 13662 ft 242 kts 91°
2026-04-21 23:07 37.30718 44.38026 13458 ft 231 kts 70°
2026-04-21 23:07 37.31484 44.39783 12815 ft 231 kts 48°
2026-04-21 23:08 37.32647 44.41195 12173 ft 233 kts 41°
2026-04-21 23:08 37.33838 44.42584 11570 ft 233 kts 41°
2026-04-21 23:08 37.34830 44.43752 11294 ft 223 kts 42°
2026-04-21 23:09 37.35510 44.44557 11365 ft 218 kts 42°
2026-04-21 23:09 37.36722 44.45677 11304 ft 215 kts 22°
2026-04-21 23:09 37.38169 44.45989 11196 ft 212 kts 354°
2026-04-21 23:09 37.39567 44.45449 10787 ft 211 kts 327°
2026-04-21 23:10 37.40645 44.44213 10257 ft 210 kts 312°
2026-04-21 23:10 37.41634 44.42881 9881 ft 206 kts 312°
2026-04-21 23:10 37.42584 44.41611 9692 ft 190 kts 313°
2026-04-21 23:10 37.43416 44.40502 9588 ft 163 kts 313°
2026-04-21 23:11 37.44169 44.39499 9494 ft 155 kts 312°
2026-04-21 23:11 37.44906 44.38517 9247 ft 153 kts 313°
2026-04-21 23:11 37.45633 44.37546 8996 ft 151 kts 313°
2026-04-21 23:11 37.46352 44.36585 8764 ft 150 kts 313°
2026-04-21 23:12 37.47060 44.35642 8530 ft 150 kts 313°
2026-04-21 23:12 37.47774 44.34692 8294 ft 149 kts 313°
2026-04-21 23:12 37.48489 44.33740 8080 ft 149 kts 313°
2026-04-21 23:12 37.49197 44.32795 7837 ft 148 kts 313°
2026-04-21 23:13 37.49907 44.31849 7591 ft 148 kts 313°
2026-04-21 23:13 37.50617 44.30900 7350 ft 149 kts 313°
2026-04-21 23:13 37.51328 44.29951 7115 ft 149 kts 313°
2026-04-21 23:13 37.52040 44.29001 6898 ft 149 kts 313°
2026-04-21 23:14 37.52748 44.28053 6706 ft 148 kts 313°
2026-04-21 23:14 37.53447 44.27098 6494 ft 148 kts 309°
2026-04-21 23:14 37.54014 44.26034 6299 ft 146 kts 299°
2026-04-21 23:14 37.54495 44.24913 6189 ft 139 kts 298°
2026-04-21 23:15 37.54878 44.24015 6173 ft 92 kts 298°
2026-04-21 23:15 37.55104 44.23490 6182 ft 56 kts 298°
2026-04-21 23:15 37.55282 44.23072 6172 ft 53 kts 298°
2026-04-21 23:15 37.55452 44.22674 6177 ft 50 kts 298°
2026-04-21 23:16 37.55572 44.22395 6178 ft 30 kts 298°
2026-04-21 23:16 37.55604 44.22262 6179 ft 12 kts 256°
2026-04-21 23:16 37.55617 44.22179 6184 ft 10 kts 332°
2026-04-21 23:16 37.55652 44.22221 6183 ft 8 kts 96°
2026-04-21 23:17 37.55619 44.22287 6175 ft 10 kts 125°
2026-04-21 23:17 37.55578 44.22382 6183 ft 18 kts 118°
2026-04-21 23:17 37.55486 44.22596 6180 ft 32 kts 118°
2026-04-21 23:17 37.55378 44.22849 6176 ft 33 kts 118°
2026-04-21 23:18 37.55269 44.23106 6178 ft 34 kts 118°
2026-04-21 23:18 37.55156 44.23370 6173 ft 35 kts 118°
2026-04-21 23:18 37.55039 44.23641 6171 ft 36 kts 118°
2026-04-21 23:18 37.54920 44.23918 6176 ft 37 kts 117°
2026-04-21 23:19 37.54799 44.24204 6177 ft 37 kts 118°
2026-04-21 23:19 37.54676 44.24493 6178 ft 37 kts 118°
2026-04-21 23:19 37.54551 44.24784 6178 ft 38 kts 118°
2026-04-21 23:19 37.54441 44.25041 6181 ft 26 kts 118°
2026-04-21 23:20 37.54357 44.25238 6184 ft 20 kts 118°
2026-04-21 23:20 37.54324 44.25329 6187 ft 7 kts 99°
2026-04-21 23:20 37.54348 44.25384 6182 ft 9 kts 39°
2026-04-21 23:20 37.54407 44.25427 6178 ft 11 kts 29°
2026-04-21 23:21 37.54473 44.25470 6176 ft 9 kts 27°
2026-04-21 23:21 37.54533 44.25479 6181 ft 6 kts 340°
2026-04-21 23:21 37.54575 44.25483 6184 ft 7 kts 26°
2026-04-21 23:21 37.54604 44.25501 6187 ft 2 kts 28°
2026-04-21 23:22 37.54614 44.25508 6184 ft 0 kts 28°